N511WM KGYH-KPBX

Flight info

Callsign N511WM
Flight time 0h 53m
Altitude 14500
Route DCT
Aircraft BE60/L-SDFGRY/C

Departure

Time 2026-05-04 15:54
Airport Donaldson Field Airport (KGYH)

Arrival

Time 2026-05-04 16:47
Airport Pike County Airport Hatcher Field (KPBX)
Time Latitude Longitude Altitude Speed Heading
2026-05-04 15:30 34.76250 -82.37593 946 ft 0 kts 195°
2026-05-04 15:47 34.76240 -82.37578 946 ft 7 kts 109°
2026-05-04 15:47 34.76241 -82.37505 945 ft 12 kts 43°
2026-05-04 15:47 34.76332 -82.37416 941 ft 21 kts 39°
2026-05-04 15:48 34.76428 -82.37321 940 ft 13 kts 42°
2026-05-04 15:48 34.76429 -82.37247 940 ft 12 kts 130°
2026-05-04 15:48 34.76304 -82.37038 937 ft 14 kts 125°
2026-05-04 15:49 34.76318 -82.36972 936 ft 12 kts 39°
2026-05-04 15:49 34.76398 -82.36895 936 ft 17 kts 39°
2026-05-04 15:49 34.76500 -82.36790 936 ft 22 kts 40°
2026-05-04 15:49 34.76589 -82.36705 934 ft 8 kts 15°
2026-05-04 15:50 34.76612 -82.36712 935 ft 0 kts 293°
2026-05-04 15:52 34.76631 -82.36742 934 ft 9 kts 309°
2026-05-04 15:53 34.76629 -82.36829 935 ft 16 kts 233°
2026-05-04 15:53 34.76383 -82.37088 937 ft 79 kts 220°
2026-05-04 15:53 34.75867 -82.37602 1061 ft 108 kts 221°
2026-05-04 15:53 34.75218 -82.38248 1292 ft 129 kts 221°
2026-05-04 15:54 34.74536 -82.38913 1857 ft 118 kts 220°
2026-05-04 15:54 34.73876 -82.39472 2358 ft 120 kts 216°
2026-05-04 15:54 34.73293 -82.40281 2518 ft 139 kts 254°
2026-05-04 15:54 34.73479 -82.41379 2984 ft 138 kts 308°
2026-05-04 15:55 34.74376 -82.41747 3421 ft 147 kts
2026-05-04 15:55 34.75346 -82.41567 3904 ft 138 kts
2026-05-04 15:55 34.76299 -82.41416 4293 ft 139 kts
2026-05-04 15:55 34.77248 -82.41496 4675 ft 137 kts 347°
2026-05-04 15:56 34.78203 -82.41621 5040 ft 140 kts 352°
2026-05-04 15:56 34.79177 -82.41684 5427 ft 141 kts 353°
2026-05-04 15:56 34.80149 -82.41733 5818 ft 142 kts 353°
2026-05-04 15:56 34.81136 -82.41785 6161 ft 143 kts 353°
2026-05-04 15:57 34.82133 -82.41836 6549 ft 145 kts 352°
2026-05-04 15:57 34.83139 -82.41887 6917 ft 144 kts 352°
2026-05-04 15:57 34.84140 -82.41939 7284 ft 144 kts 352°
2026-05-04 15:57 34.85136 -82.41988 7658 ft 143 kts 352°
2026-05-04 15:58 34.86138 -82.42043 8009 ft 145 kts 352°
2026-05-04 15:58 34.87150 -82.42098 8384 ft 147 kts 352°
2026-05-04 15:58 34.88186 -82.42150 8699 ft 151 kts 352°
2026-05-04 15:58 34.89244 -82.42204 9035 ft 153 kts 352°
2026-05-04 15:59 34.90318 -82.42261 9372 ft 156 kts 352°
2026-05-04 15:59 34.91409 -82.42319 9705 ft 158 kts 352°
2026-05-04 15:59 34.92510 -82.42375 10062 ft 159 kts 352°
2026-05-04 15:59 34.93624 -82.42434 10389 ft 160 kts 352°
2026-05-04 16:00 34.94738 -82.42491 10731 ft 161 kts 352°
2026-05-04 16:00 34.95854 -82.42549 11096 ft 160 kts 352°
2026-05-04 16:00 34.96967 -82.42608 11446 ft 160 kts 351°
2026-05-04 16:00 34.98084 -82.42666 11801 ft 161 kts 351°
2026-05-04 16:01 34.99204 -82.42727 12147 ft 162 kts 351°
2026-05-04 16:01 35.00329 -82.42786 12506 ft 162 kts 351°
2026-05-04 16:01 35.01458 -82.42846 12876 ft 162 kts 351°
2026-05-04 16:01 35.02571 -82.42902 13235 ft 162 kts 350°
2026-05-04 16:02 35.03697 -82.42960 13598 ft 162 kts 350°
2026-05-04 16:02 35.04822 -82.43020 13971 ft 162 kts 350°
2026-05-04 16:02 35.07083 -82.43140 14620 ft 163 kts 350°
2026-05-04 16:03 35.08216 -82.43198 14949 ft 163 kts 349°
2026-05-04 16:03 35.09349 -82.43258 15285 ft 163 kts 349°
2026-05-04 16:03 35.10482 -82.43318 15613 ft 163 kts 349°
2026-05-04 16:03 35.11617 -82.43378 15944 ft 164 kts 349°
2026-05-04 16:04 35.12754 -82.43437 16288 ft 164 kts 349°
2026-05-04 16:04 35.15191 -82.43575 16481 ft 192 kts 350°
2026-05-04 16:04 35.16577 -82.43645 16480 ft 207 kts 351°
2026-05-04 16:05 35.18033 -82.43718 16478 ft 216 kts 351°
2026-05-04 16:05 35.19570 -82.43797 16478 ft 225 kts 351°
2026-05-04 16:05 35.22786 -82.43964 16471 ft 237 kts 352°
2026-05-04 16:06 35.24448 -82.44051 16473 ft 241 kts 352°
2026-05-04 16:06 35.28982 -82.44289 16469 ft 248 kts 352°
2026-05-04 16:07 35.31296 -82.44411 16471 ft 249 kts 352°
2026-05-04 16:07 35.36526 -82.44687 16470 ft 252 kts 352°
2026-05-04 16:08 35.38263 -82.44779 16471 ft 252 kts 352°
2026-05-04 16:08 35.43542 -82.45057 16470 ft 253 kts 352°
2026-05-04 16:09 35.47054 -82.45244 16483 ft 252 kts 352°
2026-05-04 16:09 35.50553 -82.45430 16493 ft 251 kts 352°
2026-05-04 16:10 35.54042 -82.45615 16510 ft 250 kts 351°
2026-05-04 16:11 35.59308 -82.45895 16503 ft 254 kts 352°
2026-05-04 16:11 35.61074 -82.45990 16503 ft 254 kts 351°
2026-05-04 16:12 35.66363 -82.46271 16509 ft 255 kts 352°
2026-05-04 16:12 35.71694 -82.46554 16512 ft 256 kts 351°
2026-05-04 16:13 35.75252 -82.46743 16518 ft 256 kts 351°
2026-05-04 16:13 35.78814 -82.46935 16508 ft 256 kts 352°
2026-05-04 16:14 35.82373 -82.47127 16506 ft 256 kts 352°
2026-05-04 16:14 35.85922 -82.47317 16507 ft 254 kts 352°
2026-05-04 16:15 35.91223 -82.47601 16506 ft 253 kts 351°
2026-05-04 16:16 35.94752 -82.47789 16502 ft 254 kts 351°
2026-05-04 16:16 36.00014 -82.48069 16507 ft 248 kts 351°
2026-05-04 16:17 36.03481 -82.48259 16519 ft 251 kts 351°
2026-05-04 16:18 36.08744 -82.48541 16516 ft 252 kts 351°
2026-05-04 16:18 36.10500 -82.48637 16513 ft 253 kts 351°
2026-05-04 16:19 36.15776 -82.48921 16518 ft 253 kts 351°
2026-05-04 16:19 36.19292 -82.49110 16521 ft 253 kts 351°
2026-05-04 16:20 36.24537 -82.49394 16507 ft 252 kts 351°
2026-05-04 16:20 36.28048 -82.49586 16508 ft 253 kts 351°
2026-05-04 16:21 36.33304 -82.49869 16510 ft 251 kts 351°
2026-05-04 16:22 36.36209 -82.50026 16501 ft 251 kts 351°
2026-05-04 16:22 36.41445 -82.50310 16503 ft 251 kts 351°
2026-05-04 16:23 36.46682 -82.50595 16502 ft 251 kts 351°
2026-05-04 16:24 36.53645 -82.50973 16505 ft 250 kts 350°
2026-05-04 16:25 36.57121 -82.51164 16502 ft 250 kts 350°
2026-05-04 16:26 36.64075 -82.51543 16502 ft 250 kts 350°
2026-05-04 16:26 36.69296 -82.51830 16500 ft 251 kts 350°
2026-05-04 16:27 36.72763 -82.52020 16500 ft 251 kts 350°
2026-05-04 16:28 36.77992 -82.52305 16502 ft 251 kts 350°
2026-05-04 16:28 36.83225 -82.52593 16499 ft 250 kts 350°
2026-05-04 16:29 36.90129 -82.52973 16210 ft 249 kts 349°
2026-05-04 16:30 36.94939 -82.53342 14661 ft 195 kts 334°
2026-05-04 16:31 36.97480 -82.53336 13614 ft 205 kts 25°
2026-05-04 16:31 36.97772 -82.48350 11972 ft 212 kts 143°
2026-05-04 16:32 36.94104 -82.46740 10619 ft 177 kts 179°
2026-05-04 16:33 36.92092 -82.47209 9722 ft 135 kts 247°
2026-05-04 16:33 36.92799 -82.48955 8831 ft 148 kts 339°
2026-05-04 16:34 36.95180 -82.49276 8497 ft 192 kts 344°
2026-05-04 16:34 36.96549 -82.49455 8492 ft 203 kts 346°
2026-05-04 16:35 37.00965 -82.49967 8531 ft 223 kts 346°
2026-05-04 16:35 37.05644 -82.50526 8528 ft 225 kts 346°
2026-05-04 16:36 37.07199 -82.50713 8527 ft 224 kts 346°
2026-05-04 16:36 37.10305 -82.51087 8527 ft 225 kts 346°
2026-05-04 16:37 37.13418 -82.51462 8515 ft 225 kts 346°
2026-05-04 16:37 37.14979 -82.51651 8513 ft 226 kts 346°
2026-05-04 16:37 37.18121 -82.52029 8507 ft 227 kts 346°
2026-05-04 16:38 37.21267 -82.52408 8502 ft 228 kts 346°
2026-05-04 16:39 37.25982 -82.52975 8491 ft 225 kts 346°
2026-05-04 16:39 37.29074 -82.53348 8470 ft 225 kts 346°
2026-05-04 16:40 37.32184 -82.53722 8465 ft 225 kts 346°
2026-05-04 16:40 37.35299 -82.54110 8473 ft 227 kts 346°
2026-05-04 16:41 37.38465 -82.54494 8466 ft 230 kts 346°
2026-05-04 16:41 37.42684 -82.54988 7490 ft 177 kts 345°
2026-05-04 16:42 37.46138 -82.55419 5928 ft 160 kts 344°
2026-05-04 16:43 37.48328 -82.55680 5029 ft 156 kts 345°
2026-05-04 16:43 37.50406 -82.55935 4220 ft 149 kts 345°
2026-05-04 16:43 37.51457 -82.56078 3732 ft 156 kts 343°
2026-05-04 16:44 37.53795 -82.58827 2653 ft 117 kts 259°
2026-05-04 16:45 37.54408 -82.60507 2322 ft 114 kts 328°
2026-05-04 16:46 37.56045 -82.59361 1807 ft 97 kts 105°
2026-05-04 16:46 37.56044 -82.57700 1443 ft 89 kts 90°
2026-05-04 16:47 37.56092 -82.56608 1426 ft 23 kts 90°
2026-05-04 16:47 37.56017 -82.56554 1427 ft 6 kts 179°
2026-05-04 16:48 37.55908 -82.56480 1429 ft 0 kts 269°